East Hartford, CT

12:59 PM EST on December 07, 2016 (GMT -0500)
Hartford-brainard

Weather History for KHFD - April, 2012

Change the Weather History Date:

Thursday, April 19, 2012

  Actual Average Record
Temperature  
Mean Temperature 60 °F -  
Max Temperature 70 °F 62 °F 93 °F (1976)
Min Temperature 51 °F 38 °F 29 °F (1962)
Degree Days  
Heating Degree Days 4    
Growing Degree Days 10 (Base 50)    
Moisture  
Dew Point 40 °F    
Average Humidity 51    
Maximum Humidity 71    
Minimum Humidity 31    
Precipitation  
Precipitation 0.00 in - - ()
Sea Level Pressure  
Sea Level Pressure 30.05 in    
Wind  
Wind Speed 6 mph (South)    
Max Wind Speed 13 mph    
Max Gust Speed 20 mph    
Visibility 10 miles    
Events      
Averages and records for this station are not official NWS values.
T = Trace of Precipitation, MM = Missing Value Source: NWS Daily Summary

Daily Weather History Graph

Daily Weather History Graph

Search for Another Location

Airport or City:

Trip Planner

Search our weather history database for the weather conditions in past years. The results will help you decide how hot, cold, wet, or windy it might be!

Date:

Astronomy

Apr. 19, 2012 Rise Set
Actual Time 6:03 AM EDT 7:36 PM EDT
Civil Twilight 5:34 AM EDT 8:05 PM EDT
Nautical Twilight 4:59 AM EDT 8:40 PM EDT
Astronomical Twilight 4:21 AM EDT 9:18 PM EDT
Moon 4:57 AM EDT (4/19) 6:21 PM EDT (4/19)
Length of Visible Light 14h 31m
Length of Day
13h 32m
Waning Crescent, 2% of the Moon is Illuminated
Apr 19
Waning Crescent
Apr 21
New
Apr 29
First Quarter
May 5
Full
May 12
Last Quarter

Hourly Weather History & Observations

Time (EDT) Temp. Dew Point Humidity Pressure Visibility Wind Dir Wind Speed Gust Speed Precip Events Conditions
12:53 AM 53.1 °F 37.0 °F 55% 30.11 in 10.0 mi South 3.5 mph - N/A   Clear
1:53 AM 52.0 °F 37.0 °F 57% 30.11 in 10.0 mi South 5.8 mph - N/A   Clear
2:53 AM 52.0 °F 37.9 °F 59% 30.09 in 10.0 mi Calm Calm - N/A   Mostly Cloudy
3:53 AM 52.0 °F 37.9 °F 59% 30.09 in 10.0 mi South 5.8 mph - N/A   Overcast
4:53 AM 52.0 °F 39.0 °F 61% 30.09 in 10.0 mi SSW 5.8 mph - N/A   Overcast
5:53 AM 51.1 °F 41.0 °F 68% 30.09 in 10.0 mi South 4.6 mph - N/A   Mostly Cloudy
6:53 AM 51.1 °F 42.1 °F 71% 30.11 in 10.0 mi South 4.6 mph - N/A   Clear
7:53 AM 53.1 °F 43.0 °F 69% 30.11 in 10.0 mi South 3.5 mph - N/A   Partly Cloudy
8:53 AM 55.9 °F 39.9 °F 55% 30.11 in 10.0 mi Variable 3.5 mph - N/A   Clear
9:53 AM 59.0 °F 39.9 °F 49% 30.10 in 10.0 mi Variable 3.5 mph - N/A   Clear
10:53 AM 62.1 °F 37.9 °F 41% 30.09 in 10.0 mi Variable 4.6 mph - N/A   Clear
11:53 AM 64.9 °F 39.0 °F 39% 30.06 in 10.0 mi Variable 5.8 mph - N/A   Clear
12:53 PM 66.9 °F 39.0 °F 36% 30.05 in 10.0 mi SE 9.2 mph - N/A   Clear
1:53 PM 69.1 °F 37.0 °F 31% 30.03 in 10.0 mi South 9.2 mph - N/A   Clear
2:53 PM 70.0 °F 41.0 °F 35% 30.01 in 10.0 mi SSE 10.4 mph 17.3 mph N/A   Clear
3:53 PM 69.1 °F 39.0 °F 33% 29.99 in 10.0 mi South 12.7 mph 19.6 mph N/A   Clear
4:53 PM 69.1 °F 39.9 °F 35% 29.98 in 10.0 mi South 8.1 mph 19.6 mph N/A   Clear
5:53 PM 66.9 °F 41.0 °F 39% 29.97 in 10.0 mi South 8.1 mph 18.4 mph N/A   Clear
6:53 PM 64.9 °F 37.0 °F 36% 29.97 in 10.0 mi South 12.7 mph - N/A   Clear
7:53 PM 62.1 °F 42.1 °F 48% 29.99 in 10.0 mi South 10.4 mph - N/A   Clear
8:53 PM 59.0 °F 43.0 °F 55% 30.01 in 10.0 mi South 9.2 mph - N/A   Clear
9:53 PM 55.9 °F 42.1 °F 60% 30.02 in 10.0 mi South 6.9 mph - N/A   Clear
10:53 PM 54.0 °F 42.1 °F 64% 30.03 in 10.0 mi South 6.9 mph - N/A   Clear
11:53 PM 53.1 °F 44.1 °F 71% 30.03 in 10.0 mi South 9.2 mph - N/A   Clear